COSMOS 1375 DEB, 48267

Orbit data source: Space-Track

COSMOS 1375 DEB, 48267 is space debris in LEO originally from a launch on Sun, 06 Jun 1982 UTC launched from the Plesetsk Missile And Space Complex (PKMTR). Debris objects in space refer to the collection of defunct objects orbiting the Earth. Examples of debris include non-operational satellites, rocket bodies, and fragments generated from explosions, collisions, or faulty payload assembly.

Loading next visibility...
Identifier
48267, 1982-055BR
Orbit
LEO
Country
Flag of CISCIS
Related business
Manufacturer
Unknown
Mission
Spacecraft
Bus & Motor
Unknown
Mass
Unknown
Launch date (UTC)
1982-06-06 (44 years ago)
Launch vehicle
Unknown
Launch site
Plesetsk Missile And Space Complex (PKMTR)
Object type
Payload
Rocket body
Debris
Shape & HBR
Unknown shape, 0.1 m
Radar Cross Section
Small (<0.1 m²)

Expand to show TLE details & history
Last TLE update: 2 weeks ago

TLE from 2 weeks ago
0 COSMOS 1375 DEB
1 48267U 82055BR  26158.76428255  .00000384  00000-0  42486-3 0  9990
2 48267  65.8293 283.5885 0023157 311.9990  47.9104 13.83078821167168
Epoch: 2026-06-07T18:20Z
TLE epoch observation values (Epoch: 2026-06-07T18:20:34.012Z)
Latitude
-0.00004°
Longitude
112.28596°
Altitude
943.621 km
Speed
7.386 km/s
True Right ascension
18h 54m 21s
True Declination
0° 00' 00"
Sunlit
Object was in full shadow at epoch
Visualization orbit readout
Latitude
Unknown
Longitude
Unknown
Altitude
Unknown
Speed
Unknown
Apparent Right ascension
Unknown
Apparent Declination
Unknown
Sunlit
N/A
Visualization observer readout
Local Sidereal Time
21:33:00
Azimuth
Unknown
Elevation
Unknown
Doppler factor
Unknown
Orbital elements
Apogee altitude
968.472 km
Perigee altitude
934.525 km
Semi-major axis
7,329.636 km
Eccentricity
0.00232
Inclination
65.8293°
RAAN
283.5885°
Arg. of periapsis
311.999°
True anomaly
48.10771°
Mean anomaly
47.9104°
Eccentric anomaly
48.00901°
Mean motion
3.45875 °/min
Orbital period
104.08 mins
BSTAR
0.00042486
Loading maneuver chart data...
Computing Atmospheric mass density...
Loading historical data...
Loading historical data...
Loading historical data...
Loading historical data...
Loading historical data...
Loading historical data...
Loading historical data...

Documentation

Showing up to 5 results
|